Regional Weather Roundup
Issued by NWS

Home | Current Version | Previous Version | Graphics & Text | Print | Product List | Glossary On
Versions: 1 2 3 4 5 6 7 8 9 10 11 12 13 14 15 16 17 18 19 20 21 22 23 24 25 26 27 28 29 30 31 32 33 34 35 36 37 38 39 40 41 42 43 44 45 46 47 48 49 50
000
ASUS45 KTFX 281710
RWRMT
MONTANA REGIONAL WEATHER ROUNDUP
NATIONAL WEATHER SERVICE GREAT FALLS MT
1100 AM MDT TUE JUL 28 2015

NOTE: "FAIR" INDICATES FEW OR NO CLOUDS BELOW 12000 FEET WITH NO
SIGNIFICANT WEATHER AND/OR OBSTRUCTIONS TO VISIBILITY.

MTZ001>007-043-281800-
WEST OF THE DIVIDE

CITY           SKY/WX    TMP DP  RH WIND       PRES   REMARKS
KALISPELL      SUNNY     64  44  48 S12       30.19F
MISSOULA       SUNNY     59  46  62 SE3       30.25F
BUTTE          CLOUDY    54  38  54 NW8       30.29S
MULLAN PASS    MOSUNNY   50  41  71 VRB3      30.30S
DEER LODGE       N/A     59  45  58 SE6       30.30S
EUREKA           N/A     61  46  59 S6        30.19F
HAMILTON         N/A     63  37  39 SW7       30.26F
LIBBY            N/A     57  46  67 NW3       30.21F
PLAINS           N/A     61  46  57 CALM      30.21F
RONAN            N/A     64  45  50 SW7       30.25S
$$

MTZ008-052>055-281800-
SOUTHWEST MONTANA

CITY           SKY/WX    TMP DP  RH WIND       PRES   REMARKS
BOZEMAN        CLOUDY    59  39  47 W15       30.25R
DILLON         MOSUNNY   56  36  47 VRB3      30.29S
W YELLOWSTONE  CLOUDY    46  34  61 SW13      30.34R
TWIN BRIDGES     N/A     54  38  54 SE7       30.25R
$$

MTZ009-010-012-014-046-048-049-054-281800-
EAST SLOPES AND CENTRAL MONTANA

CITY           SKY/WX    TMP DP  RH WIND       PRES   REMARKS
CUT BANK       SUNNY     68  38  33 NW18G30   30.09R
GREAT FALLS    SUNNY     66  40  38 W16G29    30.10S
MALMSTROM AFB  MOSUNNY   65  41  41 W16G26    30.10F
HELENA         MOSUNNY   64  41  42 W17G28    30.19R
CONRAD           N/A     67  47  48 W16       30.10S
$$

MTZ011-013-016-021-045-047-050-051-281800-
NORTH CENTRAL MONTANA

CITY           SKY/WX    TMP DP  RH WIND       PRES   REMARKS
HAVRE          CLOUDY    61  49  64 W18       29.97R
LEWISTOWN      CLOUDY    60  42  51 W23G35    30.09R
CHINOOK          N/A     59  52  77 W14G22    29.94S
FORT BENTON      N/A     68  43  40 W22G29    30.05S
$$

MTZ017>020-022>027-061-062-281800-
NORTHEAST MONTANA

CITY           SKY/WX    TMP DP  RH WIND       PRES   REMARKS
GLASGOW        RAIN      56  52  86 W35G47    29.75R FOG
JORDAN           N/A     59  53  80 W29G44    29.89R
SIDNEY         PTSUNNY   63  52  67 SW24G38   29.65R
WOLF POINT     LGT RAIN  61  54  77 W30G44    29.67R
PLENTYWOOD       N/A     57  55  94 W31G38    29.41F
POPLAR           N/A     59  54  82 W30G40    29.62R
SCOBEY           N/A     55  50  83 W25       29.54R
$$

MTZ028>42-056>058-281800-
SOUTHCENTRAL AND SOUTHEAST MONTANA

CITY           SKY/WX    TMP DP  RH WIND       PRES   REMARKS
BAKER          CLOUDY    61  47  59 W40G51    29.86R
BILLINGS       PTSUNNY   62  39  42 W18G33    30.13R
LIVINGSTON     CLOUDY    59  37  44 W23G33    30.21R
MILES CITY     CLOUDY    62  47  57 W40G59    29.93R
EKALAKA          N/A     61  42  49 W31       29.92R
FORSYTH          N/A     63  45  51 W32G45    29.98R
LAUREL           N/A     64  36  35 W23       30.11R
ROUNDUP          N/A     59  42  53 W20       30.00R
$$

REGIONAL REPORTS...DAKOTAS

CITY           SKY/WX    TMP DP  RH WIND       PRES   REMARKS
WILLISTON      LGT RAIN  59  55  87 W28G40    29.53S FOG
MINOT          CLOUDY    65  50  58 S20G31    29.54S
DICKINSON      CLOUDY    64  49  57 W43G56    29.72S
BEACH          PTSUNNY   55  55 100 W37G45    29.78R FOG
CROSBY         CLOUDY    59  59 100 SW26G35   29.39F FOG
BISMARCK       PTSUNNY   70  48  45 W26G39    29.73F
GRAND FORKS    MOSUNNY   76  61  59 SW15G25   29.62R
FARGO          MOSUNNY   75  62  64 SW17      29.69R
BUFFALO SD       N/A     66  43  43 W41G53    29.86R
RAPID CITY     SUNNY     72  42  34 W13G23    30.02R
$$

REGIONAL REPORTS...WYOMING/IDAHO/WASHINGTON

CITY           SKY/WX    TMP DP  RH WIND       PRES   REMARKS
GILLETTE         N/A     66  36  32 W20G26    30.09R
SHERIDAN       PTSUNNY   68  38  33 NW20G30   30.09S
BUFFALO WY     SUNNY     65  37  35 N8        30.13R
CODY           SUNNY     61  30  31 W15G25    30.20R
YELLOWSTONE LA   N/A     43  31  62 VRB6      30.38R
IDAHO FALLS    MOSUNNY   59  38  45 CALM      30.33S
SALMON         CLOUDY    54  39  58 CALM      30.33S
BOISE          SUNNY     66  39  37 W5        30.27S
SPOKANE        MOSUNNY   65  43  44 S8        30.23F
$$

REGIONAL REPORTS...ALBERTA

CITY           SKY/WX    TMP DP  RH WIND       PRES   REMARKS
EDMONTON       MOSUNNY   68  45  42 NW16      29.95F
CALGARY        MOSUNNY   64  39  39 N14       30.06F
LETHBRIDGE     PTSUNNY   68  43  40 W23G31    30.04F
WATERTON GATE    N/A     63  43  48 SW18G28     N/A
$$

REGIONAL REPORTS...SASKATCHEWAN

CITY           SKY/WX    TMP DP  RH WIND       PRES   REMARKS
SWIFT CURRENT  LGT RAIN  54 N/A N/A NW21G31   29.70R
REGINA         LGT RAIN  59  59 100 NW12      29.26S FOG
SASKATOON      LGT RAIN  59  55  88 N21G31    29.63R
CYPRESS HILLS    N/A     52  45  76 NW13G23     N/A
VAL MARIE        N/A     54  50  87 W30G39      N/A
ROCKGLEN         N/A     54  52  94 W28G46      N/A
ASSINIBOIA       N/A     64  48  55 NW15G21     N/A
$$


USA.gov is the U.S. government's official web portal to all federal, state and local government web resources and services.